Location: Stilling
(56.0622°N, 9.9882°E)
Time: 23:11:16
(UTC+00:00)

Cosmos 292 Rocket - Pass Details

Date: 13 July 2020
Orbit: 674 x 693 km, 74.0° (Epoch: 14 August)

Event Time Altitude Azimuth Distance (km) Brightness Sun altitude
Rises 23:28:57 0° 329° (NNW) 3,062 8.2 -12.3°
Reaches altitude 10° 23:31:20 10° 323° (NW) 2,138 7.1 -12.3°
Maximum altitude 23:35:55 45° 251° (WSW) 924 4.3 -12.3°
Enters shadow 23:39:10 18° 186° (S) 1,649 5.1 -12.2°
